• Join FlightAware (Why Join?)
  • Login
  • US Flag 
06:19PM EST


 

Airport Tracker/Info


-or-


 

Live Flight TrackerFlight Track Log ✈ RAX1022 ✈ 15-Aug-2013 ✈ KEKM - KASN

Flight Track Log - Related Links

Times and Time Zones

All times are in EDT time to prevent confusion due to time zone crossing. See the RAX1022 flight status page for this flight to view local times or setup timezone preferences in your user account.

Time Position Orientation Groundspeed Altitude Reporting Facility
EDT Latitude Longitude Course Direction KTS MPH feet Rate Location/Type
12:31PM 41.6403 -86.0531 180° South 148 170 4,100  Level Chicago Center
12:32PM 41.5983 -86.0558 183° South 149 171 5,300 1,200 Climbing Chicago Center
12:33PM 41.5475 -86.0628 186° South 151 174 6,700 1,200 Climbing Chicago Center
12:34PM 41.5039 -86.0647 182° South 155 178 7,900 1,200 Climbing Chicago Center
12:35PM 41.3607 -86.0000 180° South  Level FlightAware Approximate
12:35PM 41.4594 -86.0619 177° South 159 183 9,200  Level Chicago Center
12:36PM 41.3014 -86.0000 180° South  Level FlightAware Approximate
12:36PM 41.4139 -86.0653 183° South 162 186 10,100  Level Chicago Center
12:36PM 41.3822 -86.0681 184° South 182 209 10,100 120 Level Chicago Center
12:37PM 41.3239 -86.0678 180° South 210 242 10,300 -120 Climbing Chicago Center
12:38PM 41.3044 -86.0661 176° South 204 235 10,000 -240 Descending Chicago Center
12:38PM 41.2656 -86.0672 181° South 213 245 10,100 60 Climbing Chicago Center
12:39PM 41.2339 -86.0642 176° South 211 243 10,100  Level Chicago Center
12:40PM 41.1756 -86.0564 174° South 210 242 10,100  Level Chicago Center
12:41PM 41.1175 -86.0617 184° South 211 243 10,100  Level Chicago Center
12:42PM 41.0614 -86.0672 184° South 207 238 10,100  Level Chicago Center
12:43PM 41.0017 -86.0653 179° South 211 243 10,200  Climbing Chicago Center
12:44PM 40.9317 -86.0639 179° South 211 243 10,100 -60 Descending Chicago Center
12:46PM 40.8525 -86.0614 179° South 209 241 10,100  Level Chicago Center
12:46PM 40.8158 -86.0600 178° South 209 241 10,200  Climbing Chicago Center
12:47PM 40.7575 -86.0581 179° South 210 242 10,100 -60 Descending Chicago Center
12:48PM 40.6994 -86.0542 177° South 209 241 10,100  Level Chicago Center
12:49PM 40.6431 -86.0514 178° South 205 236 10,100  Level Chicago Center
12:50PM 40.5742 -86.0575 184° South 205 236 10,100 -60 Level Chicago Center
12:51PM 40.5156 -86.0550 178° South 210 242 10,000 -60 Descending Chicago Center
12:52PM 40.4581 -86.0569 181° South 208 239 10,000  Level Chicago Center
12:54PM 40.4003 -86.0542 178° South 209 241 10,000  Level Chicago Center
12:55PM 40.3431 -86.0550 181° South 207 238 10,000  Level Chicago Center
12:56PM 40.2744 -86.0564 181° South 206 237 10,100  Climbing Chicago Center
12:57PM 40.2175 -86.0603 183° South 205 236 10,100  Level Chicago Center
12:58PM 40.1589 -86.0592 179° South 208 239 10,100 -60 Level Chicago Center
12:59PM 40.1006 -86.0578 179° South 210 242 10,000  Descending Chicago Center
01:00PM 40.0431 -86.0553 178° South 208 239 10,100  Climbing Chicago Center
01:01PM 39.9861 -86.0581 182° South 207 238 10,100  Level Chicago Center
01:02PM 39.9164 -86.0661 185° South 207 238 10,100  Level Indianapolis Center
01:03PM 39.8589 -86.0667 180° South 206 237 10,100  Level Indianapolis Center
01:04PM 39.8011 -86.0639 178° South 206 237 10,200  Climbing Indianapolis Center
01:05PM 39.7425 -86.0608 178° South 208 239 10,200 -60 Level Indianapolis Center
01:06PM 39.6836 -86.0517 173° South 210 242 10,100 -120 Descending Indianapolis Center
01:07PM 39.6267 -86.0311 164° South 210 242 10,000  Descending Indianapolis Center
01:08PM 39.5706 -86.0089 163° South 212 244 10,100  Climbing Indianapolis Center
01:09PM 39.5050 -85.9758 159° South 210 242 10,000 -60 Descending Indianapolis Center
01:10PM 39.4522 -85.9428 154° Southeast 211 243 10,000 -60 Level Indianapolis Center
01:11PM 39.3975 -85.9117 156° South 213 245 9,900  Descending Indianapolis Center
01:12PM 39.3436 -85.8842 158° South 211 243 10,000  Climbing Indianapolis Center
01:13PM 39.2856 -85.8689 168° South 212 244 10,000  Level Indianapolis Center
01:14PM 39.2286 -85.8519 167° South 211 243 10,100  Climbing Indianapolis Center
01:15PM 39.1592 -85.8394 172° South 210 242 10,000 -60 Descending Indianapolis Center
01:16PM 39.1006 -85.8442 184° South 210 242 10,000  Level Indianapolis Center
01:17PM 39.0417 -85.8514 185° South 212 244 10,000  Level Indianapolis Center
01:18PM 38.9831 -85.8539 182° South 211 243 10,100  Climbing Indianapolis Center
01:19PM 38.9247 -85.8542 180° South 210 242 10,100  Level Indianapolis Center
01:20PM 38.8544 -85.8567 182° South 211 243 10,100 -60 Level Indianapolis Center
01:21PM 38.7961 -85.8617 184° South 210 242 10,000 -60 Descending Indianapolis Center
01:22PM 38.7381 -85.8622 180° South 210 242 10,000  Level Indianapolis Center
01:24PM 38.6800 -85.8650 182° South 210 242 10,000  Level Indianapolis Center
01:25PM 38.6214 -85.8675 182° South 211 243 10,100  Climbing Indianapolis Center
01:26PM 38.5536 -85.8703 182° South 211 243 10,000 -60 Descending Indianapolis Center
01:27PM 38.4939 -85.8694 179° South 213 245 10,000  Level Indianapolis Center
01:28PM 38.4361 -85.8711 181° South 207 238 10,000  Level Indianapolis Center
01:29PM 38.3772 -85.8733 182° South 210 242 10,000  Level Indianapolis Center
01:30PM 38.3186 -85.8783 184° South 210 242 10,100  Climbing Indianapolis Center
01:31PM 38.2603 -85.8839 184° South 208 239 10,100  Level Indianapolis Center
01:32PM 38.1997 -85.8831 179° South 212 244 10,100  Level Indianapolis Center
01:33PM 38.1281 -85.8819 179° South 215 247 10,100  Level Indianapolis Center
01:34PM 38.0683 -85.8828 181° South 213 245 10,100  Level Indianapolis Center
01:35PM 38.0081 -85.8908 186° South 215 247 10,100 -60 Level Indianapolis Center
01:36PM 37.9467 -85.8897 179° South 218 251 10,000 -60 Descending Indianapolis Center
01:37PM 37.8875 -85.8986 187° South 214 246 10,000  Level Indianapolis Center
01:38PM 37.8269 -85.9011 182° South 215 247 10,000  Level Indianapolis Center
01:39PM 37.7689 -85.8981 178° South 209 241 10,100  Climbing Indianapolis Center
01:40PM 37.7086 -85.8969 179° South 211 243 10,100 -60 Level Indianapolis Center
01:41PM 37.6375 -85.8983 181° South 212 244 10,000  Descending Indianapolis Center
01:42PM 37.5767 -85.9047 185° South 216 249 10,100  Climbing Indianapolis Center
01:43PM 37.5242 -85.9142 188° South 212 244 10,000  Descending Indianapolis Center
01:44PM 37.4656 -85.9108 177° South 209 241 10,100  Climbing Indianapolis Center
01:45PM 37.3956 -85.9164 184° South 214 246 10,000 -60 Descending Indianapolis Center
01:46PM 37.3367 -85.9161 180° South 210 242 10,000  Level Indianapolis Center
01:47PM 37.2781 -85.9239 186° South 209 241 10,100  Climbing Indianapolis Center
01:48PM 37.2178 -85.9272 183° South 214 246 10,100  Level Indianapolis Center
01:49PM 37.1578 -85.9289 181° South 213 245 10,100  Level Indianapolis Center
01:50PM 37.0986 -85.9286 180° South 212 244 10,100  Level Indianapolis Center
01:51PM 37.0389 -85.9264 178° South 212 244 10,100  Level Indianapolis Center
01:52PM 36.9797 -85.9311 184° South 212 244 10,100 -60 Level Indianapolis Center
01:53PM 36.9103 -85.9325 181° South 211 243 10,000  Descending Indianapolis Center
01:54PM 36.8517 -85.9336 181° South 208 239 10,100  Climbing Indianapolis Center
01:56PM 36.7925 -85.9389 184° South 209 241 10,100  Level Indianapolis Center
01:57PM 36.7333 -85.9431 183° South 211 243 10,100  Level Indianapolis Center
01:58PM 36.6744 -85.9444 181° South 209 241 10,100  Level Indianapolis Center
01:59PM 36.6144 -85.9444 180° South 212 244 10,100  Level Indianapolis Center
02:01PM 36.4931 -85.9483 181° South 215 247 10,100  Level Memphis Center
02:02PM 36.4344 -85.9489 180° South 215 247 10,100  Level Memphis Center
02:03PM 36.3764 -85.9519 182° South 215 247 10,100  Level Memphis Center
02:04PM 36.3181 -85.9578 185° South 215 247 10,100  Level Memphis Center
02:05PM 36.2556 -85.9586 181° South 208 239 10,100  Level Memphis Center
02:06PM 36.1994 -85.9617 183° South 208 239 10,100  Level Memphis Center
02:07PM 36.1453 -85.9619 180° South 208 239 10,100  Level Memphis Center
02:08PM 36.0931 -85.9594 178° South 217 250 10,100  Level Memphis Center
02:09PM 36.0347 -85.9628 183° South 217 250 10,100  Level Memphis Center
02:10PM 35.9767 -85.9658 182° South 217 250 10,100  Level Memphis Center
02:11PM 35.9183 -85.9689 182° South 217 250 10,100  Level Memphis Center
02:12PM 35.8600 -85.9694 180° South 217 250 10,100  Level Memphis Center
02:13PM 35.8036 -85.9700 180° South 217 250 10,100  Level Memphis Center
02:14PM 35.7389 -85.9683 179° South 217 250 10,100 -60 Level Memphis Center
02:15PM 35.6828 -85.9714 183° South 217 250 10,000  Descending Memphis Center
02:16PM 35.6244 -85.9744 182° South 217 250 10,100  Climbing Memphis Center
02:17PM 35.5744 -85.9744 180° South 212 244 10,000  Descending Memphis Center
02:18PM 35.5183 -85.9800 185° South 212 244 10,100  Climbing Memphis Center
02:19PM 35.4622 -85.9856 185° South 212 244 10,100 -60 Level Memphis Center
02:20PM 35.4039 -85.9886 182° South 212 244 10,000  Descending Memphis Center
02:21PM 35.3475 -85.9889 180° South 212 244 10,100  Climbing Memphis Center
02:22PM 35.2914 -85.9894 180° South 212 244 10,000  Descending Memphis Center
02:23PM 35.2331 -85.9950 184° South 212 244 10,100  Climbing Memphis Center
02:24PM 35.1769 -86.0003 184° South 212 244 10,100 -60 Level Memphis Center
02:25PM 35.1206 -85.9983 178° South 212 244 10,000  Descending Memphis Center
02:26PM 35.0622 -85.9989 180° South 212 244 10,100  Climbing Memphis Center
02:27PM 35.0078 -85.9989 180° South 212 244 10,100  Level Memphis Center
02:28PM 34.9497 -86.0019 182° South 212 244 10,100  Level Memphis Center
02:29PM 34.8914 -86.0050 182° South 212 244 10,100  Level Memphis Center
02:30PM 34.8350 -86.0056 180° South 212 244 10,100  Level Memphis Center
02:31PM 34.7656 -86.0111 184° South 199 229 10,100  Level Atlanta Center
02:32PM 34.7072 -86.0122 181° South 199 229 10,100 -120 Level Atlanta Center
02:33PM 34.6508 -86.0083 177° South 199 229 9,900 -540 Descending Atlanta Center
02:34PM 34.5861 -86.0092 181° South 204 235 9,100 -780 Descending Atlanta Center
02:35PM 34.5236 -86.0103 181° South 224 258 8,400 -840 Descending Atlanta Center
02:36PM 34.4567 -86.0139 183° South 235 270 7,500 -900 Descending Atlanta Center
02:37PM 34.3919 -86.0225 186° South 235 270 6,600 -720 Descending Atlanta Center
02:38PM 34.3250 -86.0308 186° South 224 258 6,000 -360 Descending Atlanta Center
02:39PM 34.2728 -86.0347 184° South 230 265 5,900 -480 Descending Atlanta Center
02:40PM 34.2161 -86.0558 197° South 218 251 5,100 -540 Descending Atlanta Center
02:41PM 34.1594 -86.0747 195° South 218 251 4,900 -60 Descending Atlanta Center
02:42PM 34.1069 -86.0836 188° South 207 238 5,000  Climbing Atlanta Center
02:43PM 34.0525 -86.0997 194° South 201 231 5,000  Level Atlanta Center
02:44PM 34.0003 -86.1111 190° South 201 231 5,100  Climbing Atlanta Center
02:45PM 33.9456 -86.1247 192° South 201 231 5,000  Descending Atlanta Center
02:46PM 33.8911 -86.1408 194° South 201 231 5,100  Climbing Atlanta Center
02:47PM 33.8389 -86.1522 190° South 201 231 5,000 -60 Descending Atlanta Center
02:48PM 33.7592 -86.1703 191° South 197 227 5,000  Level Atlanta Center
02:49PM 33.7067 -86.1914 198° South 198 228 5,000  Level Atlanta Center
02:50PM 33.6500 -86.2075 193° South 198 228 5,000  Level Atlanta Center
02:51PM 33.5975 -86.2261 196° South 193 222 5,000  Level Atlanta Center
02:52PM 33.5492 -86.2472 200° South 186 214 5,000  Level Atlanta Center
02:53PM 33.5008 -86.2583 191° South 188 216 5,000  Level Atlanta Center
02:54PM 33.4378 -86.2792 195° South 190 219 5,000  Level Atlanta Center
02:55PM 33.3953 -86.3181 217° Southwest 191 220 5,000  Level Atlanta Center
02:56PM 33.3472 -86.3317 193° South 188 216 5,100  Climbing Atlanta Center
02:57PM 33.3544 -86.2744 81° East 186 214 5,000 -60 Descending Atlanta Center
02:58PM 33.3719 -86.2278 66° East 158 182 5,000 -240 Level Atlanta Center
02:59PM 33.3953 -86.2036 41° Northeast 128 147 4,600 -720 Descending Atlanta Center
03:00PM 33.4231 -86.1717 44° Northeast 142 163 3,800 -420 Descending Atlanta Center
03:01PM 33.4336 -86.1597 43° Northeast 142 163 3,800  Level Atlanta Center